FENGYUN 1C DEB

Satellite information

Favourite Embed

Satellite Type and Status

DEBRISIN ORBIT

Key statistics

Satellite FENGYUN 1C DEB at a glance.

Uptime

9714

Days in orbit

Revolutions

≈ 14.4

Per day

Orbit

SSO

Sun Synchronous Orbit

Inclination

99.7

Latest

Satellite identification and parameters

Extended collection of information and parameters for FENGYUN 1C DEB.

Object identification

Identified? True

Debris? True

Object name: FENGYUN 1C DEB

International designator: 1999-025BAZ

Object number (NORAD): 30959

Object ID (CCSDS): 30959

Country: PEOPLES REPUBLIC OF CHINA (PRC)

Current information (Y/N): Y

RCS size: SMALL

Orbital parameters

Period: 100.253 minutes

Inclination: 99.6894 deg

SMA: 7148.691 km

Apoapsis: 809.961 km

Periapsis: 731.15 km

RAAN: 233.6254 deg

Eccentricy: 0.00551227

Argument of periapsis: 5.7682 deg

Mean anomaly: 354.4124 deg

Mean motion: 14.36359053 rev/day

Mean motion (dot): 0.00016729 rev/day2

B* drag term: 0.0056216934 1/REarth

Two-line elements (TLE)

Creation date: Oct. 19, 2025, 10:30 a.m.

Reference frame: TEME

Reference center: EARTH

Epoch: Oct. 19, 2025, 12:42 a.m. UTC

TLE line 0: 0 FENGYUN 1C DEB

TLE line 1: 1 30959U 99025BAZ 25292.02968263 .00016729 00000-0 56217-2 0 9995

TLE line 2: 2 30959 99.6894 233.6254 0055123 5.7682 354.4124 14.36359053596004

Live tracking on map

Real-time ground track for satellite FENGYUN 1C DEB.

In-orbit conjunctions

A list of the most updated potential collisions computed for object FENGYUN 1C DEB.

Target Orbit TCA Probability of collision Miss distance Type
THORAD AGENA D DEB LEO 2024-11-12 07:22:35 0.0008148679 330.0 (m) DEBRIS
CZ-6A DEB LEO 2024-10-07 04:32:17 0.0001041232 684.0 (m) DEBRIS
SJ-5 SSO 2024-06-05 08:20:58 0.0004105647 155.0 (m) PAYLOAD

Associated space launch

Chinese polar orbiting meteorological satellite

FENGYUN 1C DEB was lifted into orbit during the mission ‘Long March 4B | Feng Yun 1C’, on board a Long March 4B space rocket.

The launch took place on May 10, 1999, 1:33 a.m. from Launch Complex 7.

For more information about the launch, click the button.

Launch to space Long March 4B | Feng Yun 1C
Long March 4B | Feng Yun 1C

Agency: N/A

Status: Launch Successful

Launch date: May 10, 1999, 1:33 a.m. UTC

Rocket: Long March 4B

Launch pad: Launch Complex 7

Location: Taiyuan Satellite Launch Center, People's Republic of China

...

Latest news about this satellite

There are no fresh news available about this satellite. Check back as we update our databases every day.


Newsletter sign-up

Weekly statistics, charts and insights to help you stay on top of the space industry.